�N����,����,�~����,�C��,���x,�C��,����,���ϕ���,�ő�u�ԕ���,�ő厞����,���˗�,�I�_���x,�n�����x,�ő啗���N��,DTYPE
"18/06/05","00:10",0.0,17.4,82.7,1009.5,309.8,1.2,1.7,330.9,0.00,14.5,20.3,"00:08:08",1
"18/06/05","00:20",0.0,17.2,83.3,1009.3,309.1,1.1,1.7,329.5,0.00,14.4,20.2,"00:18:48",1
"18/06/05","00:30",0.0,17.0,83.7,1009.3,302.1,1.1,1.8,289.4,0.00,14.3,20.1,"00:28:48",1
"18/06/05","00:40",0.0,16.9,84.5,1009.3,294.1,1.0,1.9,313.5,0.00,14.3,20.2,"00:30:08",1
"18/06/05","00:50",0.0,16.9,84.7,1009.3,286.6,1.0,1.3,292.9,0.00,14.3,20.1,"00:41:12",1
"18/06/05","01:00",0.0,16.9,85.1,1009.0,300.0,1.2,1.8,320.7,0.00,14.4,20.2,"00:53:52",1
"18/06/05","01:10",0.0,16.7,84.6,1009.3,291.7,0.8,1.4,330.5,0.00,14.1,20.0,"01:09:52",1
"18/06/05","01:20",0.0,16.8,85.6,1009.3,298.0,1.2,1.9,298.8,0.00,14.4,19.8,"01:19:12",1
"18/06/05","01:30",0.0,16.8,85.2,1009.3,305.5,1.2,1.9,327.4,0.00,14.3,19.7,"01:28:16",1
"18/06/05","01:40",0.0,16.6,85.8,1009.3,291.2,0.8,1.2,329.3,0.00,14.3,19.8,"01:32:48",1
"18/06/05","01:50",0.0,16.6,85.9,1009.3,292.0,1.2,1.8,313.4,0.00,14.3,19.7,"01:44:40",1
"18/06/05","02:00",0.0,16.7,86.1,1009.3,297.7,1.1,1.6,324.1,0.00,14.4,19.5,"01:54:48",1
"18/06/05","02:10",0.0,16.8,85.5,1009.3,310.8,1.5,2.4,318.8,0.00,14.4,19.7,"02:05:40",1
"18/06/05","02:20",0.0,16.8,85.5,1009.5,295.8,1.1,2.1,322.1,0.00,14.4,19.5,"02:13:28",1
"18/06/05","02:30",0.0,16.7,85.4,1009.3,306.9,1.5,2.4,324.1,0.00,14.3,19.6,"02:26:42",1
"18/06/05","02:40",0.0,16.6,85.9,1009.3,299.2,0.6,1.4,323.2,0.00,14.3,19.5,"02:30:32",1
"18/06/05","02:50",0.0,16.1,85.9,1008.6,294.3,0.7,1.0,305.9,0.00,13.8,19.4,"02:40:02",1
"18/06/05","03:00",0.0,15.9,87.8,1008.8,317.7,1.3,1.8,334.0,0.00,13.9,19.5,"02:59:12",1
"18/06/05","03:10",0.0,16.2,88.3,1008.8,322.5,1.3,1.8,319.9,0.00,14.3,19.5,"03:01:20",1
"18/06/05","03:20",0.0,16.1,88.2,1008.8,320.6,1.2,1.6,335.0,0.00,14.2,19.3,"03:10:24",1
"18/06/05","03:30",0.0,16.0,88.8,1009.0,288.7,1.1,2.1,330.1,0.00,14.2,19.2,"03:25:12",1
"18/06/05","03:40",0.0,16.0,89.0,1009.0,281.4,0.8,2.0,328.8,0.00,14.2,19.2,"03:36:24",1
"18/06/05","03:50",0.0,16.1,89.1,1009.0,309.1,1.1,1.9,319.4,0.00,14.3,19.2,"03:45:36",1
"18/06/05","04:00",0.0,16.1,88.8,1009.3,300.2,1.0,1.8,323.4,0.00,14.3,19.1,"03:56:40",1
"18/06/05","04:10",0.0,16.3,88.9,1009.5,304.1,1.3,2.9,320.8,0.00,14.5,19.2,"04:06:56",1
"18/06/05","04:20",0.0,16.2,88.3,1009.3,292.4,0.8,1.7,315.7,0.00,14.3,19.2,"04:11:12",1
"18/06/05","04:30",0.0,16.1,88.6,1009.3,302.4,1.1,2.2,329.7,0.00,14.3,19.2,"04:24:48",1
"18/06/05","04:40",0.0,16.0,88.3,1009.5,296.5,1.1,1.7,322.4,0.00,14.1,19.1,"04:32:24",1
"18/06/05","04:50",0.0,15.7,88.2,1010.0,295.5,1.0,1.3,312.0,0.00,13.8,19.0,"04:40:08",1
"18/06/05","05:00",0.0,15.5,89.6,1009.7,306.3,0.7,1.9,310.7,0.00,13.8,19.0,"04:58:40",1
"18/06/05","05:10",0.0,15.5,90.7,1010.2,320.5,1.5,2.0,313.5,0.00,14.0,19.0,"05:00:40",1
"18/06/05","05:20",0.0,15.3,91.3,1010.0,290.6,1.0,1.3,316.7,0.00,13.9,19.0,"05:19:20",1
"18/06/05","05:30",0.0,15.4,91.6,1009.5,299.7,1.0,1.6,323.2,0.00,14.1,18.8,"05:22:40",1
"18/06/05","05:40",0.0,15.7,92.0,1010.0,307.5,0.8,1.1,322.5,0.00,14.4,18.7,"05:34:16",1
"18/06/05","05:50",0.0,16.1,91.8,1009.7,317.0,1.0,1.3,318.6,0.01,14.8,18.8,"05:45:04",1
"18/06/05","06:00",0.0,16.7,91.2,1009.7,314.0,0.7,1.4,333.9,0.03,15.3,18.9,"05:55:28",1
"18/06/05","06:10",0.0,17.1,90.4,1009.7,341.5,0.2,0.9,322.8,0.03,15.6,18.7,"06:00:02",1
"18/06/05","06:20",0.0,17.4,89.3,1009.7,328.3,0.7,1.3,333.6,0.03,15.7,18.8,"06:10:16",1
"18/06/05","06:30",0.0,17.5,89.0,1009.7,326.9,1.2,2.0,341.7,0.05,15.7,18.8,"06:21:20",1
"18/06/05","06:40",0.0,18.5,86.6,1010.2,316.0,0.8,1.4,338.5,0.07,16.3,19.0,"06:37:52",1
"18/06/05","06:50",0.0,19.3,81.6,1010.0,287.9,0.8,1.4,319.9,0.10,16.1,19.1,"06:48:48",1
"18/06/05","07:00",0.0,20.0,78.1,1009.7,5.2,0.2,1.0,325.0,0.13,16.1,19.2,"06:50:32",1
"18/06/05","07:10",0.0,20.5,76.7,1010.0,327.2,0.6,1.7,331.1,0.17,16.3,19.2,"07:05:12",1
"18/06/05","07:20",0.0,20.8,74.0,1010.2,316.2,0.5,1.3,346.8,0.18,16.0,19.3,"07:12:16",1
"18/06/05","07:30",0.0,21.3,72.6,1009.7,6.0,0.3,0.8,323.4,0.16,16.2,19.5,"07:24:00",1
"18/06/05","07:40",0.0,21.1,73.6,1009.7,270.6,0.1,0.6,249.3,0.12,16.2,19.6,"07:35:44",1
"18/06/05","07:50",0.0,22.5,68.0,1009.7,345.1,0.3,1.1,11.2,0.23,16.3,19.4,"07:45:52",1
"18/06/05","08:00",0.0,22.4,66.6,1009.5,18.9,0.7,1.9,323.6,0.22,15.9,19.8,"07:59:44",1
"18/06/05","08:10",0.0,22.2,68.2,1009.5,318.4,1.1,1.8,352.6,0.16,16.1,19.8,"08:09:20",1
"18/06/05","08:20",0.0,22.7,68.6,1009.5,308.4,0.6,1.4,347.6,0.20,16.7,20.0,"08:10:32",1
"18/06/05","08:30",0.0,23.3,67.0,1009.3,255.9,0.6,1.8,316.8,0.28,16.9,20.1,"08:21:52",1
"18/06/05","08:40",0.0,23.5,64.7,1009.3,249.9,1.0,2.8,211.4,0.34,16.5,20.2,"08:30:56",1
"18/06/05","08:50",0.0,23.8,64.0,1009.0,193.9,1.0,2.1,233.1,0.37,16.6,20.4,"08:40:56",1
"18/06/05","09:00",0.0,23.2,65.0,1008.8,227.8,1.2,2.2,228.4,0.26,16.3,20.6,"08:57:04",1
"18/06/05","09:10",0.0,24.6,61.9,1008.8,348.4,0.8,2.4,332.2,0.37,16.9,20.5,"09:00:40",1
"18/06/05","09:20",0.0,24.4,62.8,1008.1,213.9,0.8,2.6,202.0,0.36,16.9,20.9,"09:12:08",1
"18/06/05","09:30",0.0,25.4,61.8,1008.1,165.3,0.6,1.7,114.1,0.40,17.6,21.1,"09:22:56",1
"18/06/05","09:40",0.0,25.1,62.4,1008.6,164.3,0.7,1.7,109.2,0.31,17.5,21.2,"09:30:08",1
"18/06/05","09:50",0.0,24.9,61.2,1009.0,222.1,1.0,3.1,346.5,0.38,17.0,21.5,"09:46:08",1
"18/06/05","10:00",0.0,24.9,61.0,1008.6,202.2,1.1,2.7,236.6,0.30,16.9,21.6,"09:58:48",1
"18/06/05","10:10",0.0,24.9,58.4,1008.8,248.9,0.8,2.7,222.9,0.30,16.2,21.7,"10:09:52",1
"18/06/05","10:20",0.0,24.7,58.2,1008.3,259.6,1.1,2.6,219.1,0.24,16.0,21.9,"10:10:48",1
"18/06/05","10:30",0.0,24.4,58.4,1008.1,210.1,1.3,2.2,190.3,0.16,15.8,22.0,"10:28:56",1
"18/06/05","10:40",0.0,24.5,58.9,1007.6,208.4,1.6,3.3,214.1,0.17,16.0,22.0,"10:33:36",1
"18/06/05","10:50",0.0,24.8,60.1,1007.4,227.2,0.8,2.5,231.6,0.16,16.6,22.0,"10:45:44",1
"18/06/05","11:00",0.0,25.3,59.9,1007.6,221.8,1.3,2.7,226.2,0.23,17.0,22.2,"10:54:16",1
"18/06/05","11:10",0.0,25.2,58.0,1007.1,219.5,1.1,2.4,215.7,0.29,16.4,22.2,"11:09:28",1
"18/06/05","11:20",0.0,24.7,58.6,1007.1,199.5,1.6,3.4,200.7,0.16,16.1,22.1,"11:10:40",1
"18/06/05","11:30",0.0,25.5,57.3,1006.9,198.4,1.5,3.1,228.7,0.29,16.5,22.3,"11:21:36",1
"18/06/05","11:40",0.0,25.5,55.1,1007.1,215.4,1.3,2.5,228.4,0.27,15.9,22.3,"11:31:20",1
"18/06/05","11:50",0.0,25.5,53.2,1006.9,195.0,1.6,3.9,196.7,0.26,15.3,22.2,"11:43:28",1
"18/06/05","12:00",0.0,25.4,54.1,1006.9,236.0,1.5,4.1,236.3,0.21,15.5,22.4,"11:51:44",1
"18/06/05","12:10",0.0,25.8,55.0,1006.9,199.8,1.8,3.7,231.5,0.27,16.1,22.6,"12:03:04",1
"18/06/05","12:20",0.0,25.2,56.6,1006.7,159.1,1.6,3.3,125.3,0.17,16.0,22.7,"12:10:48",1
"18/06/05","12:30",0.0,25.3,54.8,1006.4,239.3,0.8,1.7,231.7,0.14,15.6,22.7,"12:24:48",1
"18/06/05","12:40",0.0,25.1,55.3,1006.7,260.9,0.5,1.4,331.2,0.12,15.6,22.6,"12:30:32",1
"18/06/05","12:50",0.0,25.5,55.7,1006.4,227.3,1.0,2.8,189.1,0.15,16.0,22.8,"12:42:40",1
"18/06/05","13:00",0.0,25.6,55.6,1006.2,201.3,1.0,3.1,229.2,0.22,16.1,22.7,"12:50:40",1
"18/06/05","13:10",0.0,25.3,52.3,1006.4,233.6,1.1,3.5,230.4,0.15,14.9,22.7,"13:07:04",1
"18/06/05","13:20",0.0,25.5,55.1,1006.0,212.9,1.0,2.5,195.3,0.15,15.9,22.5,"13:16:32",1
"18/06/05","13:30",0.0,25.1,53.4,1006.2,197.6,1.2,2.9,198.3,0.10,15.0,22.6,"13:21:36",1
"18/06/05","13:40",0.0,25.1,53.6,1006.0,253.0,1.2,2.7,322.3,0.10,15.1,22.7,"13:34:48",1
"18/06/05","13:50",0.0,25.1,55.5,1006.2,245.9,1.3,2.8,231.0,0.11,15.6,22.6,"13:41:12",1
"18/06/05","14:00",0.0,25.3,53.0,1006.4,258.8,1.1,2.2,229.5,0.15,15.1,22.4,"13:54:16",1
"18/06/05","14:10",0.0,25.7,54.5,1006.2,294.0,0.8,1.9,336.4,0.17,15.9,22.6,"14:03:20",1
"18/06/05","14:20",0.0,25.7,58.2,1006.2,325.3,1.1,2.1,346.9,0.19,16.9,22.5,"14:18:56",1
"18/06/05","14:30",0.0,25.4,55.0,1005.7,344.5,1.3,2.6,4.3,0.14,15.8,22.6,"14:22:32",1
"18/06/05","14:40",0.0,25.1,57.8,1006.0,329.3,1.5,2.6,354.1,0.13,16.2,22.6,"14:33:52",1
"18/06/05","14:50",0.0,25.1,56.8,1006.0,330.5,1.5,2.5,337.1,0.09,16.0,22.6,"14:48:40",1
"18/06/05","15:00",0.0,25.4,56.0,1006.2,326.5,1.8,3.7,335.2,0.15,16.0,22.5,"14:52:00",1
"18/06/05","15:10",0.0,25.2,57.1,1006.4,306.8,1.2,2.8,345.0,0.11,16.2,22.5,"15:06:40",1
"18/06/05","15:20",0.0,25.2,55.6,1006.4,317.1,1.3,2.5,331.3,0.05,15.7,22.7,"15:10:24",1
"18/06/05","15:30",0.0,25.0,55.9,1006.7,311.3,1.2,2.7,333.8,0.03,15.6,22.6,"15:24:48",1
"18/06/05","15:40",0.0,24.8,57.5,1006.9,316.4,1.6,3.3,337.6,0.04,15.9,22.5,"15:37:20",1
"18/06/05","15:50",0.0,24.7,58.2,1006.9,327.0,1.6,3.2,331.2,0.05,16.0,22.3,"15:45:12",1
"18/06/05","16:00",0.0,24.7,61.0,1006.7,316.6,1.6,3.3,342.8,0.06,16.7,22.4,"15:56:16",1
"18/06/05","16:10",0.0,24.5,62.8,1006.9,299.3,1.0,2.7,325.1,0.05,17.0,22.4,"16:04:24",1
"18/06/05","16:20",0.0,24.3,63.4,1007.1,312.2,1.1,2.1,338.8,0.03,16.9,22.2,"16:18:00",1
"18/06/05","16:30",0.0,24.1,65.0,1006.9,297.7,1.1,2.4,313.3,0.02,17.2,22.3,"16:24:00",1
"18/06/05","16:40",0.0,23.8,64.8,1007.1,275.2,0.8,1.8,322.7,0.03,16.8,22.2,"16:37:36",1
"18/06/05","16:50",0.0,23.8,64.6,1007.1,293.7,0.8,1.7,308.1,0.02,16.8,22.2,"16:46:56",1
"18/06/05","17:00",0.0,23.8,66.2,1006.9,319.2,1.2,2.4,321.5,0.02,17.2,22.0,"16:55:36",1
"18/06/05","17:10",0.0,23.5,66.3,1007.1,317.0,1.3,2.5,341.2,0.01,16.9,22.3,"17:06:32",1
"18/06/05","17:20",0.0,23.4,67.0,1007.6,323.5,1.3,2.1,324.9,0.01,17.0,22.1,"17:16:40",1
"18/06/05","17:30",0.0,23.3,67.4,1007.1,317.0,1.7,2.5,336.2,0.00,17.0,22.1,"17:24:00",1
"18/06/05","17:40",0.0,23.0,69.0,1007.1,308.8,1.3,2.7,321.3,0.01,17.0,22.0,"17:37:28",1
"18/06/05","17:50",0.0,22.9,70.1,1007.6,323.0,1.7,2.7,334.5,0.01,17.2,21.9,"17:42:08",1
"18/06/05","18:00",0.0,22.6,71.1,1007.4,318.1,1.3,2.5,334.8,0.01,17.1,22.0,"17:59:36",1
"18/06/05","18:10",0.0,22.5,71.5,1007.4,323.9,1.6,2.7,323.3,0.00,17.1,21.9,"18:05:20",1
"18/06/05","18:20",0.0,22.3,72.3,1007.6,327.2,1.8,2.9,322.3,0.00,17.1,21.8,"18:15:12",1
"18/06/05","18:30",0.0,22.1,74.0,1007.6,301.6,1.2,2.0,302.7,0.00,17.3,21.6,"18:21:52",1
"18/06/05","18:40",0.0,21.8,75.8,1007.6,308.9,1.1,1.9,313.6,0.00,17.4,21.7,"18:39:36",1
"18/06/05","18:50",0.0,21.6,76.9,1007.6,317.0,1.7,2.6,342.9,0.00,17.4,21.5,"18:46:32",1
"18/06/05","19:00",0.0,21.3,78.8,1007.6,300.6,1.3,2.5,318.5,0.00,17.5,21.6,"18:52:32",1
"18/06/05","19:10",0.0,21.0,80.2,1008.1,289.3,1.1,3.2,326.8,0.00,17.5,21.4,"19:01:28",1
"18/06/05","19:20",0.0,20.8,81.1,1007.8,294.6,1.1,1.9,330.1,0.00,17.5,21.4,"19:16:40",1
"18/06/05","19:30",0.0,20.7,81.3,1007.6,295.3,1.0,1.6,325.8,0.00,17.4,21.3,"19:28:08",1
"18/06/05","19:40",0.0,20.5,82.2,1007.8,286.1,0.8,1.6,308.2,0.00,17.4,21.4,"19:37:28",1
"18/06/05","19:50",0.0,20.3,83.2,1007.6,271.5,0.8,1.7,247.0,0.00,17.4,21.2,"19:42:24",1
"18/06/05","20:00",0.0,20.1,84.4,1008.3,288.8,0.8,1.4,335.8,0.00,17.4,21.1,"19:57:28",1
"18/06/05","20:10",0.2,19.8,85.5,1008.1,294.9,1.0,2.1,327.4,0.00,17.3,21.1,"20:08:32",1
"18/06/05","20:20",0.0,19.7,86.7,1007.8,301.6,1.1,1.8,302.0,0.00,17.5,21.1,"20:15:44",1
"18/06/05","20:30",0.0,19.5,87.7,1008.3,284.4,1.0,1.3,308.3,0.00,17.4,21.1,"20:29:04",1
"18/06/05","20:40",0.0,19.5,88.6,1008.1,286.8,1.0,1.4,312.2,0.00,17.6,21.0,"20:32:24",1
"18/06/05","20:50",0.0,19.3,89.3,1008.1,288.8,1.1,1.3,279.8,0.00,17.5,21.1,"20:41:04",1
"18/06/05","21:00",0.0,19.2,89.8,1007.8,281.9,1.0,1.4,310.4,0.00,17.5,21.1,"20:53:04",1
"18/06/05","21:10",0.0,19.2,90.2,1007.8,291.5,1.1,1.3,288.9,0.00,17.6,20.9,"21:02:08",1
"18/06/05","21:20",0.0,19.2,90.6,1007.8,308.8,1.2,2.0,330.3,0.00,17.7,20.8,"21:17:12",1
"18/06/05","21:30",0.0,19.3,90.9,1008.1,314.9,1.1,1.8,328.2,0.00,17.8,20.8,"21:28:00",1
"18/06/05","21:40",0.0,19.2,91.0,1008.1,284.8,1.0,1.3,264.7,0.00,17.7,20.8,"21:35:44",1
"18/06/05","21:50",0.0,19.1,91.5,1008.1,306.6,1.2,2.1,321.6,0.00,17.7,20.8,"21:46:24",1
"18/06/05","22:00",0.0,19.3,91.8,1008.1,317.6,1.6,2.1,315.3,0.00,18.0,20.5,"21:54:48",1
"18/06/05","22:10",0.0,19.1,91.9,1008.3,293.4,1.1,1.9,316.3,0.00,17.8,20.6,"22:09:44",1
"18/06/05","22:20",0.0,19.1,92.2,1008.1,292.9,1.2,1.7,318.7,0.00,17.8,20.7,"22:11:12",1
"18/06/05","22:30",0.0,19.0,92.3,1008.1,277.7,1.0,1.8,257.0,0.00,17.8,20.8,"22:28:24",1
"18/06/05","22:40",0.0,19.1,92.4,1008.1,289.8,1.2,2.2,318.2,0.00,17.9,20.5,"22:33:28",1
"18/06/05","22:50",0.0,19.2,92.4,1008.1,291.1,1.2,1.7,290.8,0.00,18.0,20.5,"22:42:56",1
"18/06/05","23:00",0.2,19.2,92.4,1008.3,295.6,1.3,1.7,328.0,0.00,18.0,20.6,"22:57:36",1
"18/06/05","23:10",0.0,19.2,92.5,1008.3,296.1,1.2,2.4,323.8,0.00,18.0,20.5,"23:02:08",1
"18/06/05","23:20",0.2,19.2,92.7,1008.1,285.1,1.0,1.4,305.1,0.00,18.0,20.6,"23:15:52",1
"18/06/05","23:30",0.2,19.1,93.0,1008.3,299.8,1.0,1.3,328.6,0.00,18.0,20.5,"23:25:28",1
"18/06/05","23:40",0.6,19.1,93.2,1008.3,318.8,0.8,1.8,317.9,0.00,18.0,20.5,"23:38:16",1
"18/06/05","23:50",0.8,19.1,93.5,1007.8,330.3,1.0,1.4,331.1,0.00,18.1,20.4,"23:45:12",1
"18/06/05","24:00",0.8,19.2,93.8,1008.1,276.8,0.6,1.0,306.2,0.00,18.2,20.4,"23:54:56",1
